When you browse on this site, cookies collect data to enhance your experience and personalize the content and advertising you see.
Visit our Privacy Policy to learn more. By continuing to use the site, you agree to this use of cookies and data.
  • Em Portugal
  • Lista de países
  • Para 7 dias
  • Temperatura da água
  • Mapas de satélite
  • Mapa do tempo
  • Widgets de tempo
  • user-avatar
    Iniciar Sessão

    Previsão horária em Artemovsk

    Hoje, 13 Dezembro, Quinta-feira

    Tempo Temperatura Precipitação Vento Pressão Humidade
    00:00 -1°C° 0 mm 4 m/s 746 mmHg 86%
    01:00 -1°C° 0 mm 4 m/s 747 mmHg 86%
    02:00 -1°C° 0 mm 4 m/s 747 mmHg 86%
    03:00 -1°C° 0 mm 4 m/s 748 mmHg 88%
    04:00 -1°C° 0 mm 4 m/s 748 mmHg 88%
    05:00 -2°C° 0 mm 4 m/s 748 mmHg 88%
    06:00 -2°C° 0 mm 4 m/s 749 mmHg 88%
    07:00 -1°C° 0 mm 3 m/s 749 mmHg 88%
    08:00 -1°C° 0 mm 3 m/s 750 mmHg 88%
    09:00 -1°C° 0 mm 3 m/s 750 mmHg 89%
    10:00 0°C° 0 mm 3 m/s 751 mmHg 86%
    11:00 0°C° 0 mm 3 m/s 751 mmHg 84%
    12:00 0°C° 0 mm 4 m/s 752 mmHg 81%
    13:00 0°C° 0 mm 4 m/s 752 mmHg 80%
    14:00 +1°C° 0 mm 3 m/s 752 mmHg 80%
    15:00 +1°C° 0 mm 3 m/s 752 mmHg 80%
    16:00 +1°C° 0 mm 3 m/s 753 mmHg 81%
    17:00 +2°C° 0 mm 2 m/s 753 mmHg 82%
    18:00 +1°C° 0 mm 2 m/s 754 mmHg 83%
    19:00 +1°C° 0 mm 2 m/s 754 mmHg 82%
    20:00 +1°C° 0 mm 2 m/s 754 mmHg 82%
    21:00 +1°C° 0 mm 2 m/s 754 mmHg 82%
    22:00 +1°C° 0 mm 2 m/s 755 mmHg 82%
    23:00 -1°C° 0 mm 2 m/s 755 mmHg 83%

    Amanhã, 14 Dezembro, Sexta-feira

    Tempo Temperatura Precipitação Vento Pressão Humidade
    00:00 -1°C° 0 mm 2 m/s 755 mmHg 84%
    01:00 -1°C° 0 mm 2 m/s 755 mmHg 84%
    02:00 -1°C° 0 mm 2 m/s 755 mmHg 85%
    03:00 -1°C° 0 mm 2 m/s 755 mmHg 85%
    04:00 -1°C° 0 mm 2 m/s 755 mmHg 86%
    05:00 -2°C° 0 mm 2 m/s 755 mmHg 86%
    06:00 -2°C° 0 mm 2 m/s 756 mmHg 87%
    07:00 -1°C° 0 mm 2 m/s 756 mmHg 87%
    08:00 -1°C° 0 mm 2 m/s 756 mmHg 87%
    09:00 -1°C° 0 mm 2 m/s 756 mmHg 88%
    10:00 +2°C° 0 mm 1 m/s 756 mmHg 86%
    11:00 +3°C° 0 mm 1 m/s 756 mmHg 84%
    12:00 +3°C° 0 mm 1 m/s 757 mmHg 81%
    13:00 +3°C° 0 mm 1 m/s 757 mmHg 82%
    14:00 +4°C° 0 mm 1 m/s 757 mmHg 83%
    15:00 +3°C° 0 mm 0 m/s 757 mmHg 83%
    16:00 +2°C° 0 mm 0 m/s 757 mmHg 85%
    17:00 +1°C° 0 mm 0 m/s 757 mmHg 87%
    18:00 0°C° 0 mm 0 m/s 758 mmHg 88%
    19:00 0°C° 0 mm 0 m/s 758 mmHg 88%
    20:00 0°C° 0 mm 0 m/s 758 mmHg 89%
    21:00 0°C° 0 mm 0 m/s 758 mmHg 89%
    22:00 0°C° 0 mm 0 m/s 758 mmHg 89%
    23:00 0°C° 0 mm 0 m/s 758 mmHg 89%

    Depois de amanhã, 15 Dezembro, Sábado

    Tempo Temperatura Precipitação Vento Pressão Humidade
    00:00 +1°C° 0 mm 1 m/s 759 mmHg 89%
    01:00 +1°C° 0 mm 1 m/s 759 mmHg 89%
    02:00 +1°C° 0 mm 1 m/s 759 mmHg 89%
    03:00 0°C° 0 mm 1 m/s 759 mmHg 89%
    04:00 0°C° 0 mm 1 m/s 759 mmHg 89%
    05:00 -1°C° 0 mm 0 m/s 759 mmHg 89%
    06:00 -1°C° 0 mm 0 m/s 759 mmHg 89%
    07:00 -1°C° 0 mm 0 m/s 760 mmHg 89%
    08:00 -1°C° 0 mm 0 m/s 760 mmHg 89%
    09:00 -1°C° 0 mm 0 m/s 760 mmHg 89%
    10:00 0°C° 0 mm 0 m/s 761 mmHg 85%
    11:00 +1°C° 0 mm 0 m/s 761 mmHg 81%
    12:00 +2°C° 0 mm 0 m/s 761 mmHg 77%
    13:00 +3°C° 0 mm 1 m/s 761 mmHg 78%
    14:00 +3°C° 0 mm 1 m/s 761 mmHg 79%
    15:00 +3°C° 0 mm 1 m/s 761 mmHg 79%
    16:00 +2°C° 0 mm 1 m/s 762 mmHg 83%
    17:00 -1°C° 0 mm 2 m/s 762 mmHg 86%
    18:00 -2°C° 0 mm 2 m/s 762 mmHg 89%
    19:00 -2°C° 0 mm 2 m/s 762 mmHg 90%
    20:00 -3°C° 0 mm 2 m/s 762 mmHg 90%
    21:00 -3°C° 0 mm 2 m/s 763 mmHg 91%
    22:00 -3°C° 0 mm 2 m/s 763 mmHg 90%
    23:00 -3°C° 0 mm 2 m/s 763 mmHg 90%

    16 Dezembro, Domingo

    Tempo Temperatura Precipitação Vento Pressão Humidade
    00:00 -4°C° 0 mm 2 m/s 763 mmHg 89%
    01:00 -4°C° 0 mm 2 m/s 763 mmHg 88%
    02:00 -5°C° 0 mm 3 m/s 763 mmHg 88%
    03:00 -5°C° 0 mm 3 m/s 763 mmHg 87%
    04:00 -5°C° 0 mm 3 m/s 763 mmHg 87%
    05:00 -5°C° 0 mm 3 m/s 763 mmHg 86%
    06:00 -5°C° 0 mm 3 m/s 763 mmHg 86%
    07:00 -5°C° 0 mm 3 m/s 763 mmHg 86%
    08:00 -5°C° 0 mm 4 m/s 763 mmHg 85%
    09:00 -5°C° 0 mm 4 m/s 763 mmHg 85%
    10:00 -4°C° 0 mm 4 m/s 763 mmHg 82%
    11:00 -4°C° 0 mm 4 m/s 763 mmHg 80%
    12:00 -4°C° 0 mm 5 m/s 763 mmHg 77%
    13:00 -4°C° 0 mm 5 m/s 763 mmHg 77%
    14:00 -4°C° 0 mm 5 m/s 763 mmHg 76%
    15:00 -4°C° 0 mm 5 m/s 762 mmHg 76%
    16:00 -4°C° 0 mm 5 m/s 762 mmHg 78%
    17:00 -5°C° 0 mm 5 m/s 762 mmHg 80%
    18:00 -5°C° 0 mm 5 m/s 762 mmHg 82%
    19:00 -6°C° 0 mm 5 m/s 762 mmHg 83%
    20:00 -6°C° 0 mm 5 m/s 762 mmHg 83%
    21:00 -6°C° 0 mm 5 m/s 762 mmHg 83%
    22:00 -6°C° 0 mm 5 m/s 762 mmHg 82%
    23:00 -6°C° 0 mm 5 m/s 762 mmHg 81%

    17 Dezembro, Segunda-feira

    Tempo Temperatura Precipitação Vento Pressão Humidade
    00:00 -6°C° 0 mm 5 m/s 762 mmHg 79%
    01:00 -7°C° 0 mm 5 m/s 762 mmHg 77%
    02:00 -7°C° 0 mm 5 m/s 762 mmHg 75%
    03:00 -7°C° 0 mm 5 m/s 761 mmHg 73%
    04:00 -8°C° 0 mm 6 m/s 761 mmHg 71%
    05:00 -8°C° 0 mm 6 m/s 761 mmHg 69%
    06:00 -9°C° 0 mm 6 m/s 761 mmHg 67%
    07:00 -9°C° 0 mm 6 m/s 761 mmHg 66%
    08:00 -9°C° 0 mm 6 m/s 761 mmHg 64%
    09:00 -9°C° 0 mm 6 m/s 761 mmHg 62%
    10:00 -8°C° 0 mm 6 m/s 761 mmHg 59%
    11:00 -8°C° 0 mm 6 m/s 761 mmHg 57%
    12:00 -6°C° 0 mm 6 m/s 761 mmHg 54%
    13:00 -6°C° 0 mm 6 m/s 760 mmHg 54%
    14:00 -6°C° 0 mm 6 m/s 760 mmHg 54%
    15:00 -6°C° 0 mm 6 m/s 760 mmHg 54%
    16:00 -8°C° 0 mm 6 m/s 760 mmHg 56%
    17:00 -8°C° 0 mm 6 m/s 760 mmHg 59%
    18:00 -9°C° 0 mm 6 m/s 760 mmHg 61%
    19:00 -9°C° 0 mm 6 m/s 760 mmHg 64%
    20:00 -9°C° 0 mm 6 m/s 761 mmHg 66%
    21:00 -9°C° 0 mm 6 m/s 761 mmHg 69%
    22:00 -10°C° 0 mm 6 m/s 761 mmHg 71%
    23:00 -10°C° 0 mm 6 m/s 761 mmHg 73%

    18 Dezembro, Terça-feira

    Tempo Temperatura Precipitação Vento Pressão Humidade
    00:00 -10°C° 0 mm 6 m/s 761 mmHg 74%
    01:00 -10°C° 0 mm 6 m/s 761 mmHg 76%
    02:00 -10°C° 0 mm 6 m/s 761 mmHg 77%
    03:00 -10°C° 0 mm 6 m/s 761 mmHg 78%
    04:00 -11°C° 0 mm 6 m/s 760 mmHg 79%
    05:00 -11°C° 0 mm 6 m/s 760 mmHg 80%
    06:00 -11°C° 0 mm 6 m/s 760 mmHg 81%
    07:00 -11°C° 0 mm 6 m/s 760 mmHg 81%
    08:00 -11°C° 0 mm 6 m/s 761 mmHg 81%
    09:00 -11°C° 0 mm 6 m/s 761 mmHg 81%
    10:00 -10°C° 0 mm 6 m/s 761 mmHg 78%
    11:00 -10°C° 0 mm 6 m/s 761 mmHg 76%
    12:00 -9°C° 0 mm 6 m/s 761 mmHg 73%
    13:00 -9°C° 0 mm 6 m/s 760 mmHg 72%
    14:00 -9°C° 0 mm 6 m/s 760 mmHg 72%
    15:00 -8°C° 0 mm 6 m/s 760 mmHg 71%
    16:00 -9°C° 0 mm 6 m/s 760 mmHg 73%
    17:00 -9°C° 0 mm 6 m/s 760 mmHg 74%
    18:00 -9°C° 0 mm 6 m/s 760 mmHg 75%
    19:00 -9°C° 0 mm 6 m/s 760 mmHg 76%
    20:00 -9°C° 0 mm 6 m/s 760 mmHg 78%
    21:00 -8°C° 0 mm 6 m/s 760 mmHg 79%
    22:00 -8°C° 0 mm 6 m/s 760 mmHg 79%
    23:00 -8°C° 0 mm 6 m/s 760 mmHg 80%
    Mostrar mais